Total_Precipitation_Accumulation
0.92 0.97 1.29 1.27 1.23 1.27 1.34 1.39 1.43 1.53 1.67 1.93 2.10 2.24 2.32 2.46 2.43 2.44 2.56 2.80 3.06 3.17 3.22 3.21 2.87 2.62 2.36 2.22 2.03 1.72 1.52 1.50 1.48 1.43 1.48 1.57 1.69 1.91 2.26 2.39 2.25 1.71 1.66
0.60 0.75 1.11 1.21 1.25 1.25 1.18 1.21 1.34 1.46 1.58 1.75 1.97 2.21 2.21 2.30 2.23 2.19 2.35 2.67 2.95 2.90 2.85 2.74 2.47 2.27 2.02 1.85 1.65 1.38 1.35 1.46 1.68 1.77 1.81 1.67 1.81 2.09 2.28 2.14 2.30 1.76 1.57
0.52 0.66 0.90 1.14 1.21 1.16 1.06 1.19 1.32 1.34 1.46 1.65 1.84 2.08 2.09 2.14 2.17 2.13 2.27 2.49 2.61 2.58 2.48 2.35 2.12 1.90 1.66 1.46 1.25 1.15 1.23 1.49 1.89 2.17 2.21 1.63 1.37 1.80 1.96 1.83 1.72 1.56 1.46
0.53 0.65 0.84 0.97 1.06 1.07 1.03 1.17 1.31 1.38 1.47 1.59 1.66 1.82 1.91 2.01 2.11 2.20 2.28 2.20 2.22 2.20 2.15 2.04 1.79 1.61 1.44 1.23 1.13 1.17 1.32 1.52 1.87 2.31 2.26 1.48 1.00 1.26 1.46 1.41 1.48 1.31 1.24
0.54 0.61 0.81 0.89 0.97 1.02 1.03 1.21 1.28 1.34 1.48 1.51 1.56 1.66 1.77 1.87 1.97 2.17 2.20 2.04 2.01 2.01 1.97 1.84 1.67 1.49 1.27 1.12 1.09 1.19 1.39 1.59 1.94 2.07 1.60 1.45 1.31 1.25 1.19 1.24 1.28 1.10 0.97
0.52 0.57 0.82 0.92 0.89 0.94 1.06 1.17 1.16 1.22 1.35 1.42 1.52 1.59 1.68 1.71 1.81 2.00 1.95 1.86 1.85 1.85 1.80 1.77 1.59 1.35 1.14 1.04 1.07 1.18 1.38 1.68 1.73 1.25 1.13 1.21 1.14 1.16 1.12 1.37 1.28 1.07 0.93
0.57 0.61 0.78 0.89 0.86 0.91 0.97 1.05 1.07 1.11 1.23 1.33 1.50 1.62 1.63 1.60 1.68 1.75 1.71 1.68 1.73 1.67 1.55 1.51 1.38 1.23 1.14 1.09 1.11 1.17 1.37 1.74 1.37 0.94 1.09 1.37 1.20 1.07 1.11 1.49 1.43 1.14 0.90
0.61 0.57 0.66 0.87 0.89 0.91 0.95 0.99 1.06 1.12 1.22 1.29 1.33 1.42 1.39 1.35 1.42 1.52 1.65 1.67 1.61 1.46 1.37 1.36 1.24 1.16 1.07 1.05 1.08 1.15 1.33 1.43 0.93 0.91 1.04 1.15 1.01 1.05 1.13 1.44 1.52 1.27 1.02
0.64 0.64 0.66 0.73 0.75 0.87 1.07 1.15 1.14 1.12 1.19 1.25 1.21 1.26 1.29 1.35 1.41 1.47 1.52 1.53 1.46 1.33 1.27 1.27 1.11 0.99 0.89 0.92 0.96 1.07 1.32 1.41 1.07 1.04 0.98 0.95 0.83 0.94 1.16 1.30 1.29 1.24 1.12
0.82 0.78 0.80 0.80 0.76 0.76 0.90 1.12 1.18 1.17 1.22 1.21 1.26 1.34 1.43 1.51 1.52 1.53 1.33 1.34 1.37 1.31 1.30 1.29 1.17 0.99 0.92 0.99 1.08 1.22 1.38 1.14 1.13 1.07 1.17 1.09 0.95 1.08 1.33 1.39 1.28 1.20 1.15
1.11 1.02 0.98 0.87 0.81 0.83 0.81 0.91 1.08 1.15 1.22 1.32 1.42 1.50 1.69 1.83 1.76 1.82 1.58 1.66 1.61 1.52 1.51 1.55 1.42 1.19 1.08 1.07 1.31 1.58 1.31 1.04 1.25 1.27 1.28 1.20 1.15 1.38 1.63 1.62 1.52 1.39 1.26
1.40 1.10 1.07 0.96 0.92 0.90 0.79 0.92 1.15 1.11 1.23 1.43 1.61 1.71 2.01 2.23 2.23 1.84 2.08 2.25 2.14 2.09 1.98 1.97 2.02 1.69 1.33 1.30 1.85 2.15 1.28 1.07 1.11 1.20 1.22 1.22 1.49 1.77 1.97 1.82 1.65 1.58 1.46
1.38 1.39 1.38 1.21 1.18 1.15 1.22 1.11 1.24 1.42 1.63 1.64 1.63 1.88 2.29 2.18 2.08 1.96 2.12 2.54 2.63 2.64 2.54 2.52 2.50 2.09 1.95 2.15 2.31 2.06 1.50 1.41 1.42 1.45 1.51 1.68 1.96 2.23 2.28 2.01 1.85 1.77 1.72
1.71 1.95 2.03 1.74 1.76 1.65 1.48 1.39 1.36 1.46 1.66 1.83 2.09 2.24 2.37 2.50 2.49 2.36 2.40 2.58 2.69 2.84 3.23 3.07 2.92 2.64 2.54 2.38 2.31 2.05 1.83 1.83 1.87 2.03 2.24 2.01 2.08 2.37 2.50 2.32 2.17 2.07 2.01
2.43 2.68 2.85 2.42 2.32 2.19 2.19 2.13 1.83 1.93 2.05 2.20 2.43 2.65 2.66 2.83 2.92 2.91 2.81 2.74 2.53 2.60 2.93 3.17 3.01 3.00 2.90 2.70 2.43 2.22 2.10 2.02 1.97 2.15 2.29 2.38 2.35 2.37 2.61 2.78 2.64 2.39 2.30
2.96 3.12 3.27 3.14 3.15 2.98 2.74 2.78 2.74 2.38 2.47 2.50 2.59 2.67 2.78 2.97 3.32 3.44 3.32 3.17 2.77 2.65 2.71 2.98 3.02 3.25 3.18 2.97 2.39 2.27 2.22 2.22 2.25 2.20 2.36 2.84 2.86 2.48 2.52 2.85 3.01 2.95 2.81
3.79 3.72 3.77 3.73 4.01 3.90 3.49 3.15 2.85 2.67 2.65 2.86 2.92 2.98 3.02 3.20 3.53 3.48 3.31 2.96 2.63 2.60 2.81 2.81 2.80 3.06 2.89 2.76 2.65 2.65 2.61 2.51 2.40 2.35 2.45 2.93 2.91 2.53 2.39 2.49 2.80 3.03 3.16
4.59 4.54 4.36 3.94 4.34 4.38 4.07 3.83 3.46 3.19 3.26 3.26 2.99 3.13 3.07 3.19 3.08 3.14 2.84 2.51 2.53 2.67 2.81 2.99 2.88 2.95 2.98 3.06 3.13 3.07 2.89 2.75 2.32 2.16 2.08 2.22 2.49 2.18 2.34 2.57 2.64 2.72 3.15
5.03 5.26 5.25 5.17 4.93 4.67 4.48 4.32 4.12 3.94 3.65 3.30 3.16 3.24 2.95 2.64 2.41 2.60 2.54 2.46 2.42 2.63 2.68 2.48 2.88 3.12 3.12 3.14 2.89 2.95 2.57 2.44 2.22 1.94 1.92 1.89 2.03 2.16 2.22 2.25 2.39 2.44 2.89
4.98 5.56 5.77 5.86 5.55 5.05 4.56 4.22 4.14 3.91 3.67 3.40 3.19 3.16 2.73 2.49 2.25 2.49 2.47 2.41 2.41 2.58 2.68 2.79 3.07 3.20 2.89 2.83 2.54 2.46 2.19 1.82 1.78 1.76 1.65 1.73 1.88 1.84 2.00 2.15 2.42 2.22 2.67
4.55 5.27 5.41 5.76 5.31 4.65 4.12 3.73 3.62 3.45 3.16 3.06 2.95 2.89 2.74 2.48 2.39 2.62 2.49 2.54 2.35 2.41 2.41 2.50 2.76 2.89 2.51 2.60 3.09 2.69 2.08 1.70 1.68 1.58 1.60 1.70 1.73 1.81 2.06 2.37 2.56 2.60 2.60
3.91 4.64 4.69 4.42 4.24 3.83 3.49 3.33 3.17 3.13 2.80 2.64 2.53 2.65 2.44 2.26 2.32 2.34 2.46 2.31 2.24 2.38 2.36 2.39 2.63 2.61 2.30 2.50 3.03 3.19 2.65 2.26 1.91 1.52 1.53 1.62 1.72 1.96 2.08 2.12 2.53 2.81 2.78
3.57 3.66 3.30 3.16 3.26 3.23 3.09 2.99 2.87 2.88 2.70 2.46 2.33 2.39 2.21 2.03 2.05 2.06 2.03 2.10 2.21 2.00 2.16 2.34 2.48 2.55 2.45 2.38 2.65 3.14 2.97 2.64 2.24 1.83 1.67 1.78 1.97 2.15 2.23 2.37 2.42 2.63 2.83
2.72 2.64 2.62 2.60 2.67 2.88 2.88 2.67 2.51 2.27 2.21 2.18 2.10 2.14 2.14 1.91 1.82 1.83 1.82 1.99 2.08 2.00 2.26 1.96 2.09 2.36 2.58 2.40 2.42 2.47 2.57 2.82 2.79 2.36 1.98 1.85 1.95 2.10 2.19 2.20 2.26 2.52 2.76
2.04 2.12 2.12 2.42 2.55 2.57 2.55 2.52 2.57 2.32 2.18 2.16 2.29 2.49 2.42 2.09 1.76 1.61 1.70 1.88 2.00 2.05 2.14 2.07 2.17 2.12 2.19 2.26 2.35 2.36 2.51 2.77 2.61 2.52 2.34 2.12 2.01 1.85 1.91 2.06 2.26 2.47 2.59
1.36 1.51 1.65 1.96 2.20 2.26 2.21 2.21 2.29 2.34 2.33 2.17 2.15 2.22 2.15 2.00 1.81 1.64 1.66 1.88 1.97 2.04 2.07 2.10 2.08 1.98 2.07 2.19 2.23 2.27 2.49 2.54 2.49 2.59 2.44 2.26 2.12 1.86 1.82 1.90 2.09 2.23 2.31